Regional Weather Roundup
Issued by NWS

Home | Current Version | Previous Version | Graphics & Text | Print | Product List | Glossary On
Versions: 1 2 3 4 5 6 7 8 9 10 11 12 13 14 15 16 17 18 19 20 21 22 23 24 25 26 27 28 29 30 31 32 33 34 35 36 37 38 39 40 41 42 43 44 45 46 47 48 49 50
000
ASUS45 KCYS 271210
RWRWY

WYOMING REGIONAL WEATHER ROUNDUP
NATIONAL WEATHER SERVICE CHEYENNE WY
600 AM MDT WED MAY 27 2015

NOTE:  "FAIR" INDICATES FEW OR NO CLOUDS BELOW 12,000 FEET
WITH NO SIGNIFICANT WEATHER AND/OR OBSTRUCTIONS TO VISIBILITY.

WYZ001-271300-
YELLOWSTONE NATIONAL PARK

CITY           SKY/WX    TMP DP  RH WIND       PRES   REMARKS
LK YELLOWSTONE   N/A     37  36  96 CALM      30.16R
6HR MIN TEMP:  33; 6HR MAX TEMP:  37; 6HR PCP:  0.02;

W YELLOWSTONE  NOT AVBL

$$
WYZ002>013-054>058-071-098>099-271300-
NORTHERN WYOMING

CITY           SKY/WX    TMP DP  RH WIND       PRES   REMARKS
JACKSON        CLOUDY    39  39 100 CALM      30.12S
CODY           FAIR      48  46  93 CALM      30.02R
GREYBULL       CLOUDY    54  52  93 S3        29.99R
6HR MIN TEMP:  54; 6HR MAX TEMP:  57; 6HR PCP: TRACE;

WORLAND        MOCLDY    50  49  96 CALM      29.99S
6HR MIN TEMP:  50; 6HR MAX TEMP:  56; 6HR PCP:  0.05;

SHERIDAN       CLOUDY    49  46  90 VRB5      29.98R
6HR MIN TEMP:  46; 6HR MAX TEMP:  50;

BUFFALO        CLOUDY    51  47  86 VRB6      29.99R
6HR MIN TEMP:  49; 6HR MAX TEMP:  53; 6HR PCP: TRACE;

GILLETTE       FAIR      47  45  93 S12       29.99R
6HR MIN TEMP:  46; 6HR MAX TEMP:  54;

HULETT         FAIR      54  48  82 SW9       30.00S
NEWCASTLE      PTSUNNY   54  45  71 SE6       30.03S

$$
WYZ014>020-022>026-101>103-271300-
CENTRAL WYOMING

CITY           SKY/WX    TMP DP  RH WIND       PRES   REMARKS
BIG PINEY      FAIR      35  33  92 N6        30.13R WCI  30
6HR MIN TEMP:  35; 6HR MAX TEMP:  47; 6HR PCP: TRACE;

PINEDALE       FAIR      37  37 100 CALM      30.14R
DUBOIS         CLOUDY    41  34  75 NW9       30.10S
LANDER         FAIR      45  39  79 W10       30.03R
6HR MIN TEMP:  44; 6HR MAX TEMP:  50;

RIVERTON       FAIR      46  44  93 NW8       30.03R
6HR MIN TEMP:  46; 6HR MAX TEMP:  54;

CASPER         MOCLDY    51  45  79 SW9       30.03S
6HR MIN TEMP:  49; 6HR MAX TEMP:  52; 6HR PCP: TRACE;

DOUGLAS        FAIR      48  47  96 SW3       30.03R
6HR MIN TEMP:  48; 6HR MAX TEMP:  53; 6HR PCP:  0.01;


$$
WYZ021-027>030-104>119-271300-
SOUTHERN WYOMING

CITY           SKY/WX    TMP DP  RH WIND       PRES   REMARKS
EVANSTON       FAIR      42  39  89 SW3       30.14S
6HR MIN TEMP:  39; 6HR MAX TEMP:  42;

KEMMERER       FAIR      37  36  93 NW8       30.15S WCI  31
FORT BRIDGER   SUNNY     43  43 100 SW9       30.17R
ROCK SPRINGS   FAIR      43  39  86 SW12      30.13R
6HR MIN TEMP:  43; 6HR MAX TEMP:  47;

DIXON          CLOUDY    47  44  88 SW6       30.18S
RAWLINS        CLOUDY    47  43  86 SW6       30.12R
6HR MIN TEMP:  46; 6HR MAX TEMP:  47; 6HR PCP: TRACE;

SARATOGA       LGT RAIN  45  41  87 SW8       30.15R
LARAMIE        CLOUDY    45  39  79 S7        30.12S
6HR MIN TEMP:  45; 6HR MAX TEMP:  48; 6HR PCP:  0.01;

CHEYENNE       CLOUDY    49  43  80 W3        30.09R
6HR MIN TEMP:  48; 6HR MAX TEMP:  50; 6HR PCP: TRACE;

TORRINGTON     FAIR      50  49  96 E7        30.01S
6HR MIN TEMP:  50; 6HR MAX TEMP:  56; 6HR PCP:  0.02;

PINE BLUFFS    FAIR      45  43  93 S5        30.07S

$$



USA.gov is the U.S. government's official web portal to all federal, state and local government web resources and services.